Theta_e
309 310 312 312 313 313 314 312 307 303 303 301 302 301 302 302 302 302 302 303 303 301 301 302 301 301 301 299 297 295 300 299 301 299 301 299 300 299 298 299 299 298 297 296 298
308 310 311 312 312 313 313 305 303 303 303 301 301 301 302 302 302 305 303 301 301 301 301 301 301 301 300 300 299 299 298 299 298 298 300 299 299 300 300 299 299 299 296 296 297
308 310 311 312 312 313 314 305 302 302 301 301 302 301 302 303 303 303 300 301 301 301 301 301 301 301 302 301 300 298 299 298 301 299 298 299 299 298 298 299 298 299 298 295 295
309 309 310 312 312 313 313 308 304 301 300 301 302 301 302 302 309 301 300 301 301 301 301 301 300 302 302 302 301 300 299 300 300 301 299 299 298 298 296 299 297 296 296 295 295
313 313 313 313 313 313 313 311 305 301 301 302 302 302 304 301 301 300 300 301 301 301 300 300 301 301 302 302 301 300 300 299 299 299 298 297 298 298 297 295 295 295 295 295 295
314 314 314 314 314 314 313 312 307 302 302 302 302 302 303 304 300 300 300 300 301 301 300 300 300 299 301 300 300 299 299 299 299 299 298 298 298 297 299 296 294 294 295 295 294
315 314 313 313 313 312 314 312 306 302 301 302 302 304 302 300 300 300 300 300 301 301 300 300 300 300 299 299 300 300 300 299 298 298 299 297 299 297 298 296 296 294 294 294 294
313 313 313 312 312 311 313 311 304 301 301 302 303 303 299 299 299 300 300 300 300 300 300 300 301 299 300 299 298 301 300 300 300 298 298 299 300 300 297 296 297 295 294 293 293
312 312 311 311 310 311 313 306 303 301 302 302 302 301 301 299 299 299 300 300 300 300 301 300 299 298 299 298 298 299 300 300 300 299 298 299 301 301 296 296 298 297 295 293 292
310 309 309 309 310 312 312 303 302 303 302 302 300 302 300 299 299 299 299 300 299 299 300 299 297 298 298 298 304 301 300 300 300 300 299 299 299 299 300 296 298 297 295 293 292
306 306 308 308 310 312 306 303 305 305 302 303 301 299 298 298 299 298 299 299 298 297 298 299 299 300 299 298 299 301 301 301 299 298 299 299 298 299 299 297 296 296 294 292 291
301 301 302 307 309 309 303 300 301 302 308 301 298 298 298 298 298 297 298 298 299 299 300 299 300 299 299 298 299 299 300 300 299 298 298 298 298 298 298 297 295 294 294 292 290
301 303 304 306 311 306 303 300 301 302 306 304 297 297 297 297 297 298 298 298 299 300 300 299 300 299 301 301 302 301 301 301 301 298 296 295 298 296 297 296 295 293 292 290 290
302 303 304 307 308 304 301 302 302 303 303 305 298 297 297 297 297 297 297 298 299 300 299 299 299 301 301 301 300 301 299 300 300 296 300 295 302 298 298 296 296 295 293 290 287
303 303 304 307 306 304 302 302 302 302 299 299 297 297 296 297 296 297 296 297 299 299 298 301 300 301 300 301 298 299 297 298 298 296 292 298 296 299 296 300 298 295 293 291 287
302 305 305 307 304 302 301 302 302 301 299 301 296 298 301 298 297 297 298 296 297 298 297 298 297 298 298 297 298 297 298 299 294 295 295 295 299 300 298 294 297 295 292 289 287
301 305 306 305 304 303 303 302 301 300 301 302 300 301 300 299 299 300 301 300 298 300 302 302 300 298 299 299 298 299 303 307 302 294 302 295 298 301 295 291 291 291 290 285 284
300 304 304 305 303 303 303 301 296 290 298 304 301 304 303 300 302 301 301 303 302 299 298 303 301 298 298 296 298 301 301 308 310 299 297 297 298 306 293 289 284 282 281 284 285
302 304 303 302 303 304 301 298 295 295 305 306 302 301 301 302 300 301 303 301 301 300 297 294 299 296 297 297 298 300 302 298 299 292 299 302 301 295 295 290 287 286 288 288 285
302 303 302 301 303 303 304 300 294 301 304 304 298 299 297 300 302 302 301 300 299 299 298 297 297 299 297 296 296 299 298 301 299 305 303 305 298 301 292 291 290 287 288 286 283
302 299 300 300 303 303 299 295 297 302 303 304 298 304 302 298 303 303 301 301 300 300 298 297 296 297 297 298 299 298 301 299 298 297 305 301 303 291 289 284 288 287 288 284 282
303 296 299 301 303 300 295 296 301 301 300 303 302 303 297 299 302 301 301 302 299 299 297 296 296 293 295 294 296 297 299 300 304 301 290 291 299 284 282 276 276 284 287 283 281
302 298 299 302 304 294 299 301 300 300 301 302 302 301 296 297 302 300 302 298 299 298 297 296 299 295 296 297 295 298 296 294 292 289 293 296 299 280 274 281 283 284 284 281 281
301 299 298 299 298 296 297 298 302 300 301 301 303 300 297 299 297 299 301 298 296 297 300 299 297 294 299 304 297 299 296 294 296 292 287 289 291 296 291 291 291 289 282 277 276
300 289 287 295 300 299 297 297 298 297 300 301 301 301 297 299 299 299 299 299 298 298 299 297 292 289 293 297 300 299 301 296 295 291 301 289 284 293 293 292 288 277 277 280 279
301 293 293 283 293 298 300 300 299 297 298 301 301 299 298 298 297 296 298 298 298 297 298 295 292 290 292 293 293 296 299 298 296 295 293 283 295 291 282 273 278 283 282 281 279
298 296 295 291 291 292 296 298 298 298 299 299 298 297 299 298 296 295 294 295 295 295 297 294 291 289 291 291 296 298 291 287 284 278 285 290 290 277 288 289 282 283 277 280 279
Wind_Speed
7 8 9 10 11 11 13 13 12 10 9 8 7 6 6 5 4 4 4 4 6 8 5 1 3 2 2 3 3 3 2 3 4 6 3 0 3 1 0 3 2 2 1 0 12
7 8 9 10 11 12 14 14 13 11 10 8 7 5 4 5 4 7 3 5 6 7 4 4 2 2 3 2 2 3 3 7 4 4 3 2 3 2 1 2 3 3 2 5 20
6 8 9 10 11 12 15 14 15 13 12 9 6 3 3 3 3 1 3 4 5 5 5 2 1 1 1 0 2 4 5 3 3 4 3 2 2 2 4 6 8 7 5 9 14
7 8 9 10 11 12 13 15 16 14 11 8 5 2 2 2 3 2 2 3 3 4 3 2 3 2 1 2 1 2 5 4 2 3 4 3 1 3 7 6 2 8 4 8 10
7 8 10 11 12 13 14 15 16 14 9 7 3 1 1 2 2 2 3 3 2 2 5 2 2 2 1 1 1 3 3 2 5 3 5 1 7 6 10 8 7 1 6 8 10
8 10 11 12 13 13 15 15 15 11 8 4 2 1 0 0 4 3 3 2 4 3 3 3 3 3 1 1 3 2 4 6 6 5 4 5 2 4 8 2 7 7 9 7 9
8 9 11 13 13 14 14 15 14 8 5 3 2 2 3 1 2 3 3 3 5 3 3 2 2 3 3 2 1 2 6 6 5 3 4 5 6 11 9 2 4 7 7 7 8
8 9 10 13 15 15 13 14 9 5 3 1 2 2 1 1 1 2 2 3 4 5 5 3 2 3 1 0 3 3 1 4 0 4 0 2 6 4 1 6 8 8 6 7 7
9 8 12 13 14 14 11 11 5 2 0 1 1 2 0 2 1 2 3 2 2 3 4 2 3 3 2 3 3 2 4 4 7 3 2 4 5 3 1 3 7 7 7 6 6
7 8 10 12 13 11 10 7 2 1 0 1 2 2 1 1 1 2 3 2 3 1 2 5 4 2 2 3 4 4 4 4 5 1 2 4 13 16 16 8 14 8 7 6 7
9 11 11 12 12 11 7 2 3 2 2 1 2 0 1 1 1 4 3 2 2 5 1 3 2 5 6 6 1 1 3 5 4 1 2 8 8 17 19 8 11 9 6 7 6
15 15 14 10 9 8 4 5 2 1 3 2 1 0 1 0 1 4 3 2 2 2 2 3 5 3 3 3 4 3 5 6 5 1 1 6 16 19 16 8 5 4 3 4 2
14 16 15 6 5 1 4 5 3 1 2 2 2 2 0 1 2 3 3 0 2 2 2 4 1 3 3 3 3 4 4 4 5 5 1 6 8 6 1 2 2 2 0 1 1
13 17 10 3 2 5 3 4 2 2 4 2 1 1 1 2 3 2 2 1 1 1 1 4 3 1 1 3 4 2 2 1 3 4 4 3 6 6 3 6 3 3 3 0 2
14 13 3 3 4 3 5 4 2 1 3 1 1 1 1 2 4 4 2 2 1 2 4 3 1 2 0 2 3 4 2 2 2 2 4 1 2 7 3 2 3 5 4 2 2
11 14 2 3 2 4 4 4 2 6 6 2 2 3 3 2 2 1 2 3 2 1 1 5 2 1 2 2 1 3 1 2 3 2 2 2 3 5 3 4 1 2 3 4 2
8 11 1 3 3 5 5 3 4 4 4 2 2 1 1 3 3 4 4 4 1 4 4 4 1 1 2 1 2 3 4 3 3 2 5 0 2 8 4 3 4 5 7 5 5
5 6 1 3 5 6 4 4 3 3 4 0 1 2 3 5 3 3 1 1 1 1 2 3 5 1 4 2 4 1 3 3 4 3 4 1 5 3 4 3 5 6 8 7 6
5 1 2 3 5 6 4 3 7 5 3 3 3 5 3 3 3 3 0 2 2 2 4 2 5 2 3 0 1 3 2 2 3 2 1 3 5 6 2 4 4 5 6 7 6
4 1 3 5 5 3 3 5 3 2 4 1 5 4 5 3 3 3 1 1 3 1 2 2 4 1 1 0 2 0 4 2 1 2 4 3 4 4 3 3 5 6 7 7 5
3 2 3 4 5 2 3 6 3 3 2 4 3 4 3 4 4 2 2 1 1 2 1 3 3 3 2 4 4 3 2 1 1 1 2 3 5 6 6 5 7 8 9 7 7
3 0 4 7 2 0 3 5 4 3 1 2 1 3 4 4 3 2 3 2 3 3 3 2 3 3 8 1 2 2 2 3 2 3 1 0 6 3 5 4 4 11 10 7 4
1 2 1 2 4 2 2 2 4 5 4 4 2 0 1 4 3 3 2 1 3 2 4 3 2 3 4 0 1 2 3 3 2 2 5 3 5 1 2 6 7 9 8 6 6
0 2 0 1 1 5 5 5 5 1 3 3 3 4 2 2 0 4 3 3 5 2 3 3 3 6 5 1 2 3 4 4 3 2 3 6 9 13 11 14 16 9 6 7 7
1 4 3 3 3 3 4 2 4 4 1 3 3 5 6 3 2 3 2 1 4 1 1 3 4 2 7 10 9 9 9 8 8 5 6 4 6 14 15 14 10 7 8 8 7
1 3 2 2 2 7 8 5 7 2 7 3 3 6 7 4 5 8 5 4 3 2 4 1 3 1 5 2 3 4 9 11 12 6 9 3 20 11 7 6 8 10 9 9 8
2 1 3 3 1 4 4 6 7 7 4 4 9 6 4 4 2 2 1 2 3 5 5 3 1 3 5 2 5 3 4 3 2 2 5 4 8 5 13 13 7 10 7 10 9
Wind_Direction
25 21 14 13 9 8 1 355 353 355 353 348 345 338 336 343 354 34 56 358 340 340 346 20 90 86 84 88 82 137 58 233 244 168 250 322 225 200 317 140 228 197 159 122 162
15 12 11 10 3 1 357 357 354 347 342 340 334 334 343 353 34 70 68 351 353 6 35 53 43 13 51 81 44 102 155 223 213 202 238 213 193 214 203 201 258 285 145 141 163
13 3 2 2 357 356 356 356 350 341 333 332 326 324 340 353 107 50 25 3 4 14 22 46 57 35 92 88 186 161 213 211 246 223 181 204 257 201 166 240 220 207 200 170 176
357 359 354 352 350 350 353 352 350 346 332 326 321 325 341 324 293 141 17 17 9 19 55 55 44 60 147 226 170 263 241 217 258 209 164 203 185 259 202 226 170 217 156 171 188
353 355 349 346 345 344 346 352 350 345 341 328 322 11 11 48 124 63 20 16 40 81 71 89 93 116 238 233 218 225 301 245 289 254 243 296 232 236 257 226 222 168 178 191 202
346 347 341 339 339 340 341 346 346 341 345 358 27 56 40 114 116 50 13 39 53 76 81 65 138 149 153 231 188 311 286 274 272 242 250 228 284 138 251 303 217 202 220 218 213
317 318 329 328 332 335 335 339 338 336 350 8 36 62 60 126 95 41 56 63 56 75 102 84 132 136 143 265 298 304 319 305 232 224 244 174 268 236 233 181 189 221 230 237 232
298 305 316 318 325 326 326 333 335 331 349 44 50 38 102 82 123 25 40 82 63 65 90 94 59 89 103 355 349 316 69 328 138 151 226 167 278 265 196 181 236 232 232 238 243
290 303 304 310 321 323 319 330 333 318 8 104 83 76 208 114 103 53 44 89 57 78 75 103 74 97 46 96 351 335 255 221 314 177 131 182 278 279 146 206 264 238 237 231 250
306 308 318 324 329 329 322 320 310 230 161 114 87 65 64 169 85 66 45 63 88 64 55 47 47 87 48 112 240 242 250 249 251 249 214 243 257 275 271 208 245 245 256 255 244
322 315 312 323 337 328 338 305 24 329 65 214 121 134 127 146 96 47 28 70 48 49 121 9 48 227 228 223 294 286 236 259 259 218 267 247 269 276 276 235 257 255 255 261 268
337 327 307 299 322 324 343 83 120 160 313 67 45 35 75 228 103 8 10 121 84 116 122 21 233 256 254 213 237 266 275 274 275 96 242 306 288 270 277 268 222 246 238 274 168
340 331 316 285 312 258 86 112 122 50 98 334 80 105 27 36 94 358 15 145 111 121 186 184 183 322 188 220 207 225 213 246 259 323 164 314 287 316 277 278 243 238 232 358 300
344 337 313 253 194 150 105 123 120 107 60 247 103 288 57 117 59 334 16 98 66 134 167 226 294 332 228 253 150 281 341 302 343 37 269 18 288 302 318 302 268 267 218 73 106
352 341 287 183 144 142 140 132 121 101 2 213 159 223 144 111 140 8 353 22 173 134 85 273 28 49 213 248 158 227 17 67 90 86 19 312 51 273 335 81 52 26 26 282 190
341 348 219 152 150 136 140 127 110 46 255 126 154 197 142 63 59 332 49 52 92 57 151 259 297 10 202 55 68 156 44 105 62 109 320 217 131 283 236 199 12 10 5 7 295
322 338 266 150 143 153 136 73 52 142 314 267 174 82 85 39 69 45 26 18 22 42 5 329 70 118 20 154 45 36 57 311 325 10 230 220 83 254 275 240 221 282 313 324 323
307 319 93 151 143 148 119 65 116 249 219 249 93 90 70 18 33 1 82 77 116 31 69 20 318 50 1 127 164 79 163 215 253 307 297 84 236 234 212 248 266 274 274 299 303
314 225 160 135 153 144 79 97 206 197 162 141 51 73 328 203 142 22 14 180 150 172 149 96 275 81 58 62 77 158 192 74 119 171 265 248 270 300 339 326 355 326 314 296 309
341 172 170 159 131 121 99 246 179 209 111 133 172 161 185 224 72 42 310 268 166 174 163 223 317 133 157 183 42 103 138 145 140 236 260 290 281 241 311 293 303 294 306 311 318
291 101 186 176 155 94 174 223 211 97 102 181 197 176 218 160 147 206 252 153 187 154 74 143 119 290 95 200 182 148 197 158 50 271 241 303 275 210 209 220 259 290 305 304 307
218 16 158 160 135 83 166 181 140 167 157 146 99 210 187 151 148 216 224 242 147 149 149 214 165 266 232 16 40 87 173 174 214 196 216 193 275 197 224 234 238 285 299 296 271
190 155 102 159 194 198 147 130 166 180 185 149 176 182 51 153 145 208 237 77 141 197 168 189 232 320 324 139 67 208 178 129 100 56 208 152 264 339 285 294 265 273 305 305 302
251 175 339 90 98 151 157 201 175 226 159 136 125 123 116 191 94 155 207 170 191 224 197 169 224 194 216 194 158 201 197 191 193 139 195 233 290 301 324 328 320 318 297 300 288
235 237 187 206 218 208 135 166 168 186 206 142 188 212 186 160 122 192 200 141 179 211 190 165 233 195 259 260 243 251 242 191 198 213 234 271 246 291 307 298 287 287 290 305 312
222 146 144 201 180 180 194 202 176 174 157 186 206 219 212 201 180 196 174 205 192 161 174 181 271 31 279 307 148 253 249 229 220 234 260 342 286 278 281 284 289 282 286 289 293
258 142 130 288 73 114 213 179 201 152 208 163 196 170 190 207 132 98 87 86 146 165 183 175 191 29 271 286 274 297 239 182 229 284 155 202 237 340 310 314 304 310 295 281 281